Location: Marcé
(47.5801°N, 0.3280°W)
Time: 05:09:36
(UTC+01:00)

Envisat - Pass Details

Date: 26 October 2021
Orbit: 764 x 766 km, 98.2° (Epoch: 04 December)

Event Time Altitude Azimuth Distance (km) Brightness Sun altitude
Rises 19:41:19 0° 216° (SW) 3,222 7.0 -8.7°
Reaches altitude 10° 19:44:45 10° 241° (WSW) 2,303 6.8 -9.3°
Maximum altitude 19:47:25 14° 273° (W) 2,024 6.6 -9.7°
Drops below altitude 10° 19:50:06 10° 305° (NW) 2,312 6.2 -10.1°
Sets 19:53:35 0° 330° (NNW) 3,244 6.6 -10.7°
